Index of /20260420/WXO-DD/model_rdps/10km/06/071
Name Last modified Size Description
Parent Directory -
20260420T06Z_MSC_RDPS_AbsoluteVorticity_IsbL-0250_RLatLon0.09_PT071H.grib2 2026-04-20 08:59 599K
20260420T06Z_MSC_RDPS_AbsoluteVorticity_IsbL-0500_RLatLon0.09_PT071H.grib2 2026-04-20 08:59 567K
20260420T06Z_MSC_RDPS_AbsoluteVorticity_IsbL-0700_RLatLon0.09_PT071H.grib2 2026-04-20 08:59 623K
20260420T06Z_MSC_RDPS_AbsoluteVorticity_IsbL-0850_RLatLon0.09_PT071H.grib2 2026-04-20 08:59 785K
20260420T06Z_MSC_RDPS_AirTemp_AGL-120m_RLatLon0.09_PT071H.grib2 2026-04-20 08:59 373K
20260420T06Z_MSC_RDPS_AirTemp_AGL-2m_RLatLon0.09_PT071H.grib2 2026-04-20 08:59 631K
20260420T06Z_MSC_RDPS_AirTemp_AGL-40m_RLatLon0.09_PT071H.grib2 2026-04-20 08:59 388K
20260420T06Z_MSC_RDPS_AirTemp_AGL-80m_RLatLon0.09_PT071H.grib2 2026-04-20 08:59 379K
20260420T06Z_MSC_RDPS_AirTemp_IsbL-0001_RLatLon0.09_PT071H.grib2 2026-04-20 08:59 225K
20260420T06Z_MSC_RDPS_AirTemp_IsbL-0005_RLatLon0.09_PT071H.grib2 2026-04-20 08:59 328K
20260420T06Z_MSC_RDPS_AirTemp_IsbL-0010_RLatLon0.09_PT071H.grib2 2026-04-20 08:59 299K
20260420T06Z_MSC_RDPS_AirTemp_IsbL-0020_RLatLon0.09_PT071H.grib2 2026-04-20 08:59 320K
20260420T06Z_MSC_RDPS_AirTemp_IsbL-0030_RLatLon0.09_PT071H.grib2 2026-04-20 08:59 345K
20260420T06Z_MSC_RDPS_AirTemp_IsbL-0050_RLatLon0.09_PT071H.grib2 2026-04-20 08:59 327K
20260420T06Z_MSC_RDPS_AirTemp_IsbL-0100_RLatLon0.09_PT071H.grib2 2026-04-20 08:59 401K
20260420T06Z_MSC_RDPS_AirTemp_IsbL-0150_RLatLon0.09_PT071H.grib2 2026-04-20 08:59 426K
20260420T06Z_MSC_RDPS_AirTemp_IsbL-0175_RLatLon0.09_PT071H.grib2 2026-04-20 08:59 423K
20260420T06Z_MSC_RDPS_AirTemp_IsbL-0200_RLatLon0.09_PT071H.grib2 2026-04-20 08:59 424K
20260420T06Z_MSC_RDPS_AirTemp_IsbL-0225_RLatLon0.09_PT071H.grib2 2026-04-20 08:59 421K
20260420T06Z_MSC_RDPS_AirTemp_IsbL-0250_RLatLon0.09_PT071H.grib2 2026-04-20 08:59 422K
20260420T06Z_MSC_RDPS_AirTemp_IsbL-0275_RLatLon0.09_PT071H.grib2 2026-04-20 08:59 403K
20260420T06Z_MSC_RDPS_AirTemp_IsbL-0300_RLatLon0.09_PT071H.grib2 2026-04-20 08:59 410K
20260420T06Z_MSC_RDPS_AirTemp_IsbL-0350_RLatLon0.09_PT071H.grib2 2026-04-20 08:59 424K
20260420T06Z_MSC_RDPS_AirTemp_IsbL-0400_RLatLon0.09_PT071H.grib2 2026-04-20 08:59 426K
20260420T06Z_MSC_RDPS_AirTemp_IsbL-0450_RLatLon0.09_PT071H.grib2 2026-04-20 08:59 402K
20260420T06Z_MSC_RDPS_AirTemp_IsbL-0500_RLatLon0.09_PT071H.grib2 2026-04-20 08:59 415K
20260420T06Z_MSC_RDPS_AirTemp_IsbL-0550_RLatLon0.09_PT071H.grib2 2026-04-20 08:59 436K
20260420T06Z_MSC_RDPS_AirTemp_IsbL-0600_RLatLon0.09_PT071H.grib2 2026-04-20 08:59 454K
20260420T06Z_MSC_RDPS_AirTemp_IsbL-0650_RLatLon0.09_PT071H.grib2 2026-04-20 08:59 468K
20260420T06Z_MSC_RDPS_AirTemp_IsbL-0700_RLatLon0.09_PT071H.grib2 2026-04-20 08:59 491K
20260420T06Z_MSC_RDPS_AirTemp_IsbL-0750_RLatLon0.09_PT071H.grib2 2026-04-20 08:59 534K
20260420T06Z_MSC_RDPS_AirTemp_IsbL-0800_RLatLon0.09_PT071H.grib2 2026-04-20 08:59 468K
20260420T06Z_MSC_RDPS_AirTemp_IsbL-0850_RLatLon0.09_PT071H.grib2 2026-04-20 08:59 504K
20260420T06Z_MSC_RDPS_AirTemp_IsbL-0875_RLatLon0.09_PT071H.grib2 2026-04-20 08:59 513K
20260420T06Z_MSC_RDPS_AirTemp_IsbL-0900_RLatLon0.09_PT071H.grib2 2026-04-20 08:59 516K
20260420T06Z_MSC_RDPS_AirTemp_IsbL-0925_RLatLon0.09_PT071H.grib2 2026-04-20 08:59 512K
20260420T06Z_MSC_RDPS_AirTemp_IsbL-0950_RLatLon0.09_PT071H.grib2 2026-04-20 08:59 515K
20260420T06Z_MSC_RDPS_AirTemp_IsbL-0970_RLatLon0.09_PT071H.grib2 2026-04-20 08:59 513K
20260420T06Z_MSC_RDPS_AirTemp_IsbL-0985_RLatLon0.09_PT071H.grib2 2026-04-20 08:59 506K
20260420T06Z_MSC_RDPS_AirTemp_IsbL-1000_RLatLon0.09_PT071H.grib2 2026-04-20 08:59 488K
20260420T06Z_MSC_RDPS_AirTemp_IsbL-1015_RLatLon0.09_PT071H.grib2 2026-04-20 08:59 480K
20260420T06Z_MSC_RDPS_Albedo_Sfc_RLatLon0.09_PT071H.grib2 2026-04-20 08:59 163K
20260420T06Z_MSC_RDPS_CAPE_Sfc_RLatLon0.09_PT071H.grib2 2026-04-20 08:59 1.6M
20260420T06Z_MSC_RDPS_CIN_Sfc_RLatLon0.09_PT071H.grib2 2026-04-20 08:59 1.1M
20260420T06Z_MSC_RDPS_CloudWater_EAtm_RLatLon0.09_PT071H.grib2 2026-04-20 08:59 218K
20260420T06Z_MSC_RDPS_ConvectivePrecip-Accum_Sfc_RLatLon0.09_PT071H.grib2 2026-04-20 08:59 1.3M
20260420T06Z_MSC_RDPS_DewPointDepression_AGL-2m_RLatLon0.09_PT071H.grib2 2026-04-20 08:59 387K
20260420T06Z_MSC_RDPS_DewPointDepression_IsbL-0001_RLatLon0.09_PT071H.grib2 2026-04-20 08:59 193
20260420T06Z_MSC_RDPS_DewPointDepression_IsbL-0005_RLatLon0.09_PT071H.grib2 2026-04-20 08:59 193
20260420T06Z_MSC_RDPS_DewPointDepression_IsbL-0010_RLatLon0.09_PT071H.grib2 2026-04-20 08:59 193
20260420T06Z_MSC_RDPS_DewPointDepression_IsbL-0020_RLatLon0.09_PT071H.grib2 2026-04-20 08:59 193
20260420T06Z_MSC_RDPS_DewPointDepression_IsbL-0030_RLatLon0.09_PT071H.grib2 2026-04-20 08:59 193
20260420T06Z_MSC_RDPS_DewPointDepression_IsbL-0050_RLatLon0.09_PT071H.grib2 2026-04-20 08:59 102K
20260420T06Z_MSC_RDPS_DewPointDepression_IsbL-0100_RLatLon0.09_PT071H.grib2 2026-04-20 08:59 130K
20260420T06Z_MSC_RDPS_DewPointDepression_IsbL-0150_RLatLon0.09_PT071H.grib2 2026-04-20 08:59 154K
20260420T06Z_MSC_RDPS_DewPointDepression_IsbL-0175_RLatLon0.09_PT071H.grib2 2026-04-20 08:59 193K
20260420T06Z_MSC_RDPS_DewPointDepression_IsbL-0200_RLatLon0.09_PT071H.grib2 2026-04-20 08:59 226K
20260420T06Z_MSC_RDPS_DewPointDepression_IsbL-0225_RLatLon0.09_PT071H.grib2 2026-04-20 08:59 257K
20260420T06Z_MSC_RDPS_DewPointDepression_IsbL-0250_RLatLon0.09_PT071H.grib2 2026-04-20 08:59 293K
20260420T06Z_MSC_RDPS_DewPointDepression_IsbL-0275_RLatLon0.09_PT071H.grib2 2026-04-20 08:59 303K
20260420T06Z_MSC_RDPS_DewPointDepression_IsbL-0300_RLatLon0.09_PT071H.grib2 2026-04-20 08:59 323K
20260420T06Z_MSC_RDPS_DewPointDepression_IsbL-0350_RLatLon0.09_PT071H.grib2 2026-04-20 08:59 332K
20260420T06Z_MSC_RDPS_DewPointDepression_IsbL-0400_RLatLon0.09_PT071H.grib2 2026-04-20 08:59 346K
20260420T06Z_MSC_RDPS_DewPointDepression_IsbL-0450_RLatLon0.09_PT071H.grib2 2026-04-20 08:59 356K
20260420T06Z_MSC_RDPS_DewPointDepression_IsbL-0500_RLatLon0.09_PT071H.grib2 2026-04-20 08:59 365K
20260420T06Z_MSC_RDPS_DewPointDepression_IsbL-0550_RLatLon0.09_PT071H.grib2 2026-04-20 08:59 379K
20260420T06Z_MSC_RDPS_DewPointDepression_IsbL-0600_RLatLon0.09_PT071H.grib2 2026-04-20 08:59 391K
20260420T06Z_MSC_RDPS_DewPointDepression_IsbL-0650_RLatLon0.09_PT071H.grib2 2026-04-20 08:59 396K
20260420T06Z_MSC_RDPS_DewPointDepression_IsbL-0700_RLatLon0.09_PT071H.grib2 2026-04-20 08:59 404K
20260420T06Z_MSC_RDPS_DewPointDepression_IsbL-0750_RLatLon0.09_PT071H.grib2 2026-04-20 08:59 424K
20260420T06Z_MSC_RDPS_DewPointDepression_IsbL-0800_RLatLon0.09_PT071H.grib2 2026-04-20 08:59 456K
20260420T06Z_MSC_RDPS_DewPointDepression_IsbL-0850_RLatLon0.09_PT071H.grib2 2026-04-20 08:59 466K
20260420T06Z_MSC_RDPS_DewPointDepression_IsbL-0875_RLatLon0.09_PT071H.grib2 2026-04-20 08:59 461K
20260420T06Z_MSC_RDPS_DewPointDepression_IsbL-0900_RLatLon0.09_PT071H.grib2 2026-04-20 08:59 454K
20260420T06Z_MSC_RDPS_DewPointDepression_IsbL-0925_RLatLon0.09_PT071H.grib2 2026-04-20 08:59 443K
20260420T06Z_MSC_RDPS_DewPointDepression_IsbL-0950_RLatLon0.09_PT071H.grib2 2026-04-20 08:59 434K
20260420T06Z_MSC_RDPS_DewPointDepression_IsbL-0970_RLatLon0.09_PT071H.grib2 2026-04-20 08:59 425K
20260420T06Z_MSC_RDPS_DewPointDepression_IsbL-0985_RLatLon0.09_PT071H.grib2 2026-04-20 08:59 421K
20260420T06Z_MSC_RDPS_DewPointDepression_IsbL-1000_RLatLon0.09_PT071H.grib2 2026-04-20 08:59 415K
20260420T06Z_MSC_RDPS_DewPointDepression_IsbL-1015_RLatLon0.09_PT071H.grib2 2026-04-20 08:59 406K
20260420T06Z_MSC_RDPS_DewPoint_AGL-2m_RLatLon0.09_PT071H.grib2 2026-04-20 08:59 385K
20260420T06Z_MSC_RDPS_DownwardLongwaveRadiationFlux-Accum_Sfc_RLatLon0.09_PT071H.grib2 2026-04-20 08:59 421K
20260420T06Z_MSC_RDPS_DownwardShortwaveRadiationFlux-Accum_NTAtm_RLatLon0.09_PT071H.grib2 2026-04-20 08:59 114K
20260420T06Z_MSC_RDPS_DownwardShortwaveRadiationFlux-Accum_Sfc_RLatLon0.09_PT071H.grib2 2026-04-20 08:59 611K
20260420T06Z_MSC_RDPS_FreezingRain-Accum1h_Sfc_RLatLon0.09_PT071H.grib2 2026-04-20 08:59 30K
20260420T06Z_MSC_RDPS_FreezingRain-Accum_Sfc_RLatLon0.09_PT071H.grib2 2026-04-20 08:59 138K
20260420T06Z_MSC_RDPS_GeopotentialHeight_IsbL-0001_RLatLon0.09_PT071H.grib2 2026-04-20 08:59 207K
20260420T06Z_MSC_RDPS_GeopotentialHeight_IsbL-0005_RLatLon0.09_PT071H.grib2 2026-04-20 08:59 307K
20260420T06Z_MSC_RDPS_GeopotentialHeight_IsbL-0010_RLatLon0.09_PT071H.grib2 2026-04-20 08:59 337K
20260420T06Z_MSC_RDPS_GeopotentialHeight_IsbL-0020_RLatLon0.09_PT071H.grib2 2026-04-20 08:59 305K
20260420T06Z_MSC_RDPS_GeopotentialHeight_IsbL-0030_RLatLon0.09_PT071H.grib2 2026-04-20 08:59 306K
20260420T06Z_MSC_RDPS_GeopotentialHeight_IsbL-0050_RLatLon0.09_PT071H.grib2 2026-04-20 08:59 343K
20260420T06Z_MSC_RDPS_GeopotentialHeight_IsbL-0100_RLatLon0.09_PT071H.grib2 2026-04-20 08:59 290K
20260420T06Z_MSC_RDPS_GeopotentialHeight_IsbL-0150_RLatLon0.09_PT071H.grib2 2026-04-20 08:59 231K
20260420T06Z_MSC_RDPS_GeopotentialHeight_IsbL-0175_RLatLon0.09_PT071H.grib2 2026-04-20 08:59 265K
20260420T06Z_MSC_RDPS_GeopotentialHeight_IsbL-0200_RLatLon0.09_PT071H.grib2 2026-04-20 08:59 268K
20260420T06Z_MSC_RDPS_GeopotentialHeight_IsbL-0225_RLatLon0.09_PT071H.grib2 2026-04-20 08:59 270K
20260420T06Z_MSC_RDPS_GeopotentialHeight_IsbL-0250_RLatLon0.09_PT071H.grib2 2026-04-20 08:59 271K
20260420T06Z_MSC_RDPS_GeopotentialHeight_IsbL-0275_RLatLon0.09_PT071H.grib2 2026-04-20 08:59 270K
20260420T06Z_MSC_RDPS_GeopotentialHeight_IsbL-0300_RLatLon0.09_PT071H.grib2 2026-04-20 08:59 269K
20260420T06Z_MSC_RDPS_GeopotentialHeight_IsbL-0350_RLatLon0.09_PT071H.grib2 2026-04-20 08:59 234K
20260420T06Z_MSC_RDPS_GeopotentialHeight_IsbL-0400_RLatLon0.09_PT071H.grib2 2026-04-20 08:59 231K
20260420T06Z_MSC_RDPS_GeopotentialHeight_IsbL-0450_RLatLon0.09_PT071H.grib2 2026-04-20 08:59 302K
20260420T06Z_MSC_RDPS_GeopotentialHeight_IsbL-0500_RLatLon0.09_PT071H.grib2 2026-04-20 08:59 297K
20260420T06Z_MSC_RDPS_GeopotentialHeight_IsbL-0550_RLatLon0.09_PT071H.grib2 2026-04-20 08:59 294K
20260420T06Z_MSC_RDPS_GeopotentialHeight_IsbL-0600_RLatLon0.09_PT071H.grib2 2026-04-20 08:59 289K
20260420T06Z_MSC_RDPS_GeopotentialHeight_IsbL-0650_RLatLon0.09_PT071H.grib2 2026-04-20 08:59 260K
20260420T06Z_MSC_RDPS_GeopotentialHeight_IsbL-0700_RLatLon0.09_PT071H.grib2 2026-04-20 08:59 258K
20260420T06Z_MSC_RDPS_GeopotentialHeight_IsbL-0750_RLatLon0.09_PT071H.grib2 2026-04-20 08:59 260K
20260420T06Z_MSC_RDPS_GeopotentialHeight_IsbL-0800_RLatLon0.09_PT071H.grib2 2026-04-20 08:59 267K
20260420T06Z_MSC_RDPS_GeopotentialHeight_IsbL-0850_RLatLon0.09_PT071H.grib2 2026-04-20 08:59 272K
20260420T06Z_MSC_RDPS_GeopotentialHeight_IsbL-0875_RLatLon0.09_PT071H.grib2 2026-04-20 08:59 274K
20260420T06Z_MSC_RDPS_GeopotentialHeight_IsbL-0900_RLatLon0.09_PT071H.grib2 2026-04-20 08:59 364K
20260420T06Z_MSC_RDPS_GeopotentialHeight_IsbL-0925_RLatLon0.09_PT071H.grib2 2026-04-20 08:59 365K
20260420T06Z_MSC_RDPS_GeopotentialHeight_IsbL-0950_RLatLon0.09_PT071H.grib2 2026-04-20 08:59 369K
20260420T06Z_MSC_RDPS_GeopotentialHeight_IsbL-0970_RLatLon0.09_PT071H.grib2 2026-04-20 08:59 374K
20260420T06Z_MSC_RDPS_GeopotentialHeight_IsbL-0985_RLatLon0.09_PT071H.grib2 2026-04-20 08:59 382K
20260420T06Z_MSC_RDPS_GeopotentialHeight_IsbL-1000_RLatLon0.09_PT071H.grib2 2026-04-20 08:59 394K
20260420T06Z_MSC_RDPS_GeopotentialHeight_IsbL-1015_RLatLon0.09_PT071H.grib2 2026-04-20 08:59 407K
20260420T06Z_MSC_RDPS_Humidex_Sfc_RLatLon0.09_PT071H.grib2 2026-04-20 08:59 2.4M
20260420T06Z_MSC_RDPS_IcePellets-Accum1h_Sfc_RLatLon0.09_PT071H.grib2 2026-04-20 08:59 12K
20260420T06Z_MSC_RDPS_IcePellets-Accum_Sfc_RLatLon0.09_PT071H.grib2 2026-04-20 08:59 30K
20260420T06Z_MSC_RDPS_KIndex_Sfc_RLatLon0.09_PT071H.grib2 2026-04-20 08:59 2.5M
20260420T06Z_MSC_RDPS_LatentHeatNetFlux_Sfc_RLatLon0.09_PT071H.grib2 2026-04-20 08:59 317K
20260420T06Z_MSC_RDPS_LiftedIndex-MU-VT_IsbL-0500_RLatLon0.09_PT071H.grib2 2026-04-20 08:59 2.4M
20260420T06Z_MSC_RDPS_NetLongwaveRadiationFlux-Accum_Sfc_RLatLon0.09_PT071H.grib2 2026-04-20 08:59 469K
20260420T06Z_MSC_RDPS_NetShortwaveRadiationFlux-Accum_Sfc_RLatLon0.09_PT071H.grib2 2026-04-20 08:59 624K
20260420T06Z_MSC_RDPS_PlanetaryBoundaryLayerHeight_Sfc_RLatLon0.09_PT071H.grib2 2026-04-20 08:59 1.1M
20260420T06Z_MSC_RDPS_Precip-Accum1h_Sfc_RLatLon0.09_PT071H.grib2 2026-04-20 08:59 1.2M
20260420T06Z_MSC_RDPS_Precip-Accum_Sfc_RLatLon0.09_PT071H.grib2 2026-04-20 08:59 2.1M
20260420T06Z_MSC_RDPS_PrecipRate_Sfc_RLatLon0.09_PT071H.grib2 2026-04-20 08:59 179K
20260420T06Z_MSC_RDPS_PrecipType-Instant_Sfc_RLatLon0.09_PT071H.grib2 2026-04-20 08:59 588K
20260420T06Z_MSC_RDPS_Pressure-Trend3h_Sfc_RLatLon0.09_PT071H.grib2 2026-04-20 08:59 1.2M
20260420T06Z_MSC_RDPS_Pressure_MSL_RLatLon0.09_PT071H.grib2 2026-04-20 08:59 294K
20260420T06Z_MSC_RDPS_Pressure_PVU-1.5_RLatLon0.09_PT071H.grib2 2026-04-20 08:59 2.3M
20260420T06Z_MSC_RDPS_Pressure_PVU-1_RLatLon0.09_PT071H.grib2 2026-04-20 08:59 2.4M
20260420T06Z_MSC_RDPS_Pressure_PVU-2_RLatLon0.09_PT071H.grib2 2026-04-20 08:59 2.4M
20260420T06Z_MSC_RDPS_Pressure_Sfc_RLatLon0.09_PT071H.grib2 2026-04-20 08:59 501K
20260420T06Z_MSC_RDPS_RadiativeTemp_Sfc_RLatLon0.09_PT071H.grib2 2026-04-20 08:59 305K
20260420T06Z_MSC_RDPS_Rain-Accum1h_Sfc_RLatLon0.09_PT071H.grib2 2026-04-20 08:59 591K
20260420T06Z_MSC_RDPS_Rain-Accum_Sfc_RLatLon0.09_PT071H.grib2 2026-04-20 08:59 1.7M
20260420T06Z_MSC_RDPS_RelativeHumidity_AGL-2m_RLatLon0.09_PT071H.grib2 2026-04-20 08:59 1.0M
20260420T06Z_MSC_RDPS_RelativeHumidity_IsbL-0010_RLatLon0.09_PT071H.grib2 2026-04-20 08:59 616K
20260420T06Z_MSC_RDPS_RelativeHumidity_IsbL-0020_RLatLon0.09_PT071H.grib2 2026-04-20 08:59 648K
20260420T06Z_MSC_RDPS_RelativeHumidity_IsbL-0030_RLatLon0.09_PT071H.grib2 2026-04-20 08:59 544K
20260420T06Z_MSC_RDPS_RelativeHumidity_IsbL-0050_RLatLon0.09_PT071H.grib2 2026-04-20 08:59 281K
20260420T06Z_MSC_RDPS_RelativeHumidity_IsbL-0100_RLatLon0.09_PT071H.grib2 2026-04-20 08:59 271K
20260420T06Z_MSC_RDPS_RelativeHumidity_IsbL-0150_RLatLon0.09_PT071H.grib2 2026-04-20 08:59 384K
20260420T06Z_MSC_RDPS_RelativeHumidity_IsbL-0175_RLatLon0.09_PT071H.grib2 2026-04-20 08:59 481K
20260420T06Z_MSC_RDPS_RelativeHumidity_IsbL-0200_RLatLon0.09_PT071H.grib2 2026-04-20 08:59 566K
20260420T06Z_MSC_RDPS_RelativeHumidity_IsbL-0225_RLatLon0.09_PT071H.grib2 2026-04-20 08:59 628K
20260420T06Z_MSC_RDPS_RelativeHumidity_IsbL-0250_RLatLon0.09_PT071H.grib2 2026-04-20 08:59 690K
20260420T06Z_MSC_RDPS_RelativeHumidity_IsbL-0275_RLatLon0.09_PT071H.grib2 2026-04-20 08:59 709K
20260420T06Z_MSC_RDPS_RelativeHumidity_IsbL-0300_RLatLon0.09_PT071H.grib2 2026-04-20 08:59 753K
20260420T06Z_MSC_RDPS_RelativeHumidity_IsbL-0350_RLatLon0.09_PT071H.grib2 2026-04-20 08:59 777K
20260420T06Z_MSC_RDPS_RelativeHumidity_IsbL-0400_RLatLon0.09_PT071H.grib2 2026-04-20 08:59 793K
20260420T06Z_MSC_RDPS_RelativeHumidity_IsbL-0450_RLatLon0.09_PT071H.grib2 2026-04-20 08:59 803K
20260420T06Z_MSC_RDPS_RelativeHumidity_IsbL-0500_RLatLon0.09_PT071H.grib2 2026-04-20 08:59 825K
20260420T06Z_MSC_RDPS_RelativeHumidity_IsbL-0550_RLatLon0.09_PT071H.grib2 2026-04-20 08:59 848K
20260420T06Z_MSC_RDPS_RelativeHumidity_IsbL-0600_RLatLon0.09_PT071H.grib2 2026-04-20 08:59 870K
20260420T06Z_MSC_RDPS_RelativeHumidity_IsbL-0650_RLatLon0.09_PT071H.grib2 2026-04-20 08:59 880K
20260420T06Z_MSC_RDPS_RelativeHumidity_IsbL-0700_RLatLon0.09_PT071H.grib2 2026-04-20 08:59 896K
20260420T06Z_MSC_RDPS_RelativeHumidity_IsbL-0750_RLatLon0.09_PT071H.grib2 2026-04-20 08:59 929K
20260420T06Z_MSC_RDPS_RelativeHumidity_IsbL-0800_RLatLon0.09_PT071H.grib2 2026-04-20 08:59 1.0M
20260420T06Z_MSC_RDPS_RelativeHumidity_IsbL-0850_RLatLon0.09_PT071H.grib2 2026-04-20 08:59 1.0M
20260420T06Z_MSC_RDPS_RelativeHumidity_IsbL-0875_RLatLon0.09_PT071H.grib2 2026-04-20 08:59 1.0M
20260420T06Z_MSC_RDPS_RelativeHumidity_IsbL-0900_RLatLon0.09_PT071H.grib2 2026-04-20 08:59 1.0M
20260420T06Z_MSC_RDPS_RelativeHumidity_IsbL-0925_RLatLon0.09_PT071H.grib2 2026-04-20 08:59 1.0M
20260420T06Z_MSC_RDPS_RelativeHumidity_IsbL-0950_RLatLon0.09_PT071H.grib2 2026-04-20 08:59 1.0M
20260420T06Z_MSC_RDPS_RelativeHumidity_IsbL-0970_RLatLon0.09_PT071H.grib2 2026-04-20 08:59 1.0M
20260420T06Z_MSC_RDPS_RelativeHumidity_IsbL-0985_RLatLon0.09_PT071H.grib2 2026-04-20 08:59 1.0M
20260420T06Z_MSC_RDPS_RelativeHumidity_IsbL-1000_RLatLon0.09_PT071H.grib2 2026-04-20 08:59 1.0M
20260420T06Z_MSC_RDPS_RelativeHumidity_IsbL-1015_RLatLon0.09_PT071H.grib2 2026-04-20 08:59 1.0M
20260420T06Z_MSC_RDPS_Runoff-Accum_Sfc_RLatLon0.09_PT071H.grib2 2026-04-20 08:59 50K
20260420T06Z_MSC_RDPS_SWEATIndex_Sfc_RLatLon0.09_PT071H.grib2 2026-04-20 08:59 2.4M
20260420T06Z_MSC_RDPS_SeeingIndex_EAtm_RLatLon0.09_PT071H.grib2 2026-04-20 08:59 1.0M
20260420T06Z_MSC_RDPS_SensibleHeatNetFlux_Sfc_RLatLon0.09_PT071H.grib2 2026-04-20 08:59 301K
20260420T06Z_MSC_RDPS_ShowalterIndex_IsbL-0500_RLatLon0.09_PT071H.grib2 2026-04-20 08:59 2.6M
20260420T06Z_MSC_RDPS_SkyTransparencyIndex_EAtm_RLatLon0.09_PT071H.grib2 2026-04-20 08:59 733K
20260420T06Z_MSC_RDPS_Snow-Accum1h_Sfc_RLatLon0.09_PT071H.grib2 2026-04-20 08:59 490K
20260420T06Z_MSC_RDPS_Snow-Accum_Sfc_RLatLon0.09_PT071H.grib2 2026-04-20 08:59 731K
20260420T06Z_MSC_RDPS_SnowDensity_Sfc_RLatLon0.09_PT071H.grib2 2026-04-20 08:59 178K
20260420T06Z_MSC_RDPS_SnowDepth_Sfc_RLatLon0.09_PT071H.grib2 2026-04-20 08:59 725K
20260420T06Z_MSC_RDPS_SoilTemp_DBS-0to10cm_RLatLon0.09_PT071H.grib2 2026-04-20 08:59 242K
20260420T06Z_MSC_RDPS_SoilTemp_Sfc_RLatLon0.09_PT071H.grib2 2026-04-20 08:59 263K
20260420T06Z_MSC_RDPS_SoilVolumetricIceContent_Sfc_RLatLon0.09_PT071H.grib2 2026-04-20 08:59 169K
20260420T06Z_MSC_RDPS_SoilVolumetricWaterContent_DBS-0to10cm_RLatLon0.09_PT071H.grib2 2026-04-20 08:59 251K
20260420T06Z_MSC_RDPS_SoilVolumetricWaterContent_DBS-0to1cm_RLatLon0.09_PT071H.grib2 2026-04-20 08:59 339K
20260420T06Z_MSC_RDPS_SpecificHumidity_AGL-120m_RLatLon0.09_PT071H.grib2 2026-04-20 08:59 469K
20260420T06Z_MSC_RDPS_SpecificHumidity_AGL-2m_RLatLon0.09_PT071H.grib2 2026-04-20 08:59 632K
20260420T06Z_MSC_RDPS_SpecificHumidity_AGL-40m_RLatLon0.09_PT071H.grib2 2026-04-20 08:59 474K
20260420T06Z_MSC_RDPS_SpecificHumidity_AGL-80m_RLatLon0.09_PT071H.grib2 2026-04-20 08:59 469K
20260420T06Z_MSC_RDPS_SpecificHumidity_IsbL-0001_RLatLon0.09_PT071H.grib2 2026-04-20 08:59 325K
20260420T06Z_MSC_RDPS_SpecificHumidity_IsbL-0005_RLatLon0.09_PT071H.grib2 2026-04-20 08:59 404K
20260420T06Z_MSC_RDPS_SpecificHumidity_IsbL-0010_RLatLon0.09_PT071H.grib2 2026-04-20 08:59 377K
20260420T06Z_MSC_RDPS_SpecificHumidity_IsbL-0020_RLatLon0.09_PT071H.grib2 2026-04-20 08:59 368K
20260420T06Z_MSC_RDPS_SpecificHumidity_IsbL-0030_RLatLon0.09_PT071H.grib2 2026-04-20 08:59 466K
20260420T06Z_MSC_RDPS_SpecificHumidity_IsbL-0050_RLatLon0.09_PT071H.grib2 2026-04-20 08:59 460K
20260420T06Z_MSC_RDPS_SpecificHumidity_IsbL-0100_RLatLon0.09_PT071H.grib2 2026-04-20 08:59 409K
20260420T06Z_MSC_RDPS_SpecificHumidity_IsbL-0150_RLatLon0.09_PT071H.grib2 2026-04-20 08:59 426K
20260420T06Z_MSC_RDPS_SpecificHumidity_IsbL-0175_RLatLon0.09_PT071H.grib2 2026-04-20 08:59 535K
20260420T06Z_MSC_RDPS_SpecificHumidity_IsbL-0200_RLatLon0.09_PT071H.grib2 2026-04-20 08:59 447K
20260420T06Z_MSC_RDPS_SpecificHumidity_IsbL-0225_RLatLon0.09_PT071H.grib2 2026-04-20 08:59 552K
20260420T06Z_MSC_RDPS_SpecificHumidity_IsbL-0250_RLatLon0.09_PT071H.grib2 2026-04-20 08:59 553K
20260420T06Z_MSC_RDPS_SpecificHumidity_IsbL-0275_RLatLon0.09_PT071H.grib2 2026-04-20 08:59 469K
20260420T06Z_MSC_RDPS_SpecificHumidity_IsbL-0300_RLatLon0.09_PT071H.grib2 2026-04-20 08:59 540K
20260420T06Z_MSC_RDPS_SpecificHumidity_IsbL-0350_RLatLon0.09_PT071H.grib2 2026-04-20 08:59 561K
20260420T06Z_MSC_RDPS_SpecificHumidity_IsbL-0400_RLatLon0.09_PT071H.grib2 2026-04-20 08:59 519K
20260420T06Z_MSC_RDPS_SpecificHumidity_IsbL-0450_RLatLon0.09_PT071H.grib2 2026-04-20 08:59 574K
20260420T06Z_MSC_RDPS_SpecificHumidity_IsbL-0500_RLatLon0.09_PT071H.grib2 2026-04-20 08:59 514K
20260420T06Z_MSC_RDPS_SpecificHumidity_IsbL-0550_RLatLon0.09_PT071H.grib2 2026-04-20 08:59 574K
20260420T06Z_MSC_RDPS_SpecificHumidity_IsbL-0600_RLatLon0.09_PT071H.grib2 2026-04-20 08:59 645K
20260420T06Z_MSC_RDPS_SpecificHumidity_IsbL-0650_RLatLon0.09_PT071H.grib2 2026-04-20 08:59 560K
20260420T06Z_MSC_RDPS_SpecificHumidity_IsbL-0700_RLatLon0.09_PT071H.grib2 2026-04-20 08:59 600K
20260420T06Z_MSC_RDPS_SpecificHumidity_IsbL-0750_RLatLon0.09_PT071H.grib2 2026-04-20 08:59 652K
20260420T06Z_MSC_RDPS_SpecificHumidity_IsbL-0800_RLatLon0.09_PT071H.grib2 2026-04-20 08:59 724K
20260420T06Z_MSC_RDPS_SpecificHumidity_IsbL-0850_RLatLon0.09_PT071H.grib2 2026-04-20 08:59 787K
20260420T06Z_MSC_RDPS_SpecificHumidity_IsbL-0875_RLatLon0.09_PT071H.grib2 2026-04-20 08:59 803K
20260420T06Z_MSC_RDPS_SpecificHumidity_IsbL-0900_RLatLon0.09_PT071H.grib2 2026-04-20 08:59 813K
20260420T06Z_MSC_RDPS_SpecificHumidity_IsbL-0925_RLatLon0.09_PT071H.grib2 2026-04-20 08:59 816K
20260420T06Z_MSC_RDPS_SpecificHumidity_IsbL-0950_RLatLon0.09_PT071H.grib2 2026-04-20 08:59 815K
20260420T06Z_MSC_RDPS_SpecificHumidity_IsbL-0970_RLatLon0.09_PT071H.grib2 2026-04-20 08:59 805K
20260420T06Z_MSC_RDPS_SpecificHumidity_IsbL-0985_RLatLon0.09_PT071H.grib2 2026-04-20 08:59 799K
20260420T06Z_MSC_RDPS_SpecificHumidity_IsbL-1000_RLatLon0.09_PT071H.grib2 2026-04-20 08:59 790K
20260420T06Z_MSC_RDPS_SpecificHumidity_IsbL-1015_RLatLon0.09_PT071H.grib2 2026-04-20 08:59 641K
20260420T06Z_MSC_RDPS_SpecificHumidity_Sfc_RLatLon0.09_PT071H.grib2 2026-04-20 08:59 292K
20260420T06Z_MSC_RDPS_StormRelativeHelicity_EtaL-10000_RLatLon0.09_PT071H.grib2 2026-04-20 08:59 1.2M
20260420T06Z_MSC_RDPS_StormSeverityIndex_EtaL-10000_RLatLon0.09_PT071H.grib2 2026-04-20 08:59 1.2M
20260420T06Z_MSC_RDPS_Thickness_IsbL-0850to0700_RLatLon0.09_PT071H.grib2 2026-04-20 08:59 177K
20260420T06Z_MSC_RDPS_Thickness_IsbL-1000to0500_RLatLon0.09_PT071H.grib2 2026-04-20 08:59 200K
20260420T06Z_MSC_RDPS_Thickness_IsbL-1000to0850_RLatLon0.09_PT071H.grib2 2026-04-20 08:59 260K
20260420T06Z_MSC_RDPS_TotalCloudCover_Sfc_RLatLon0.09_PT071H.grib2 2026-04-20 08:59 675K
20260420T06Z_MSC_RDPS_TotalTotalsIndex_Sfc_RLatLon0.09_PT071H.grib2 2026-04-20 08:59 2.5M
20260420T06Z_MSC_RDPS_UVIndex-ClearSky_Sfc_RLatLon0.09_PT071H.grib2 2026-04-20 08:59 85K
20260420T06Z_MSC_RDPS_UVIndex_Sfc_RLatLon0.09_PT071H.grib2 2026-04-20 08:59 151K
20260420T06Z_MSC_RDPS_UpwardLongwaveRadiationFlux_NTAtm_RLatLon0.09_PT071H.grib2 2026-04-20 08:59 484K
20260420T06Z_MSC_RDPS_UpwardShortwaveRadiationFlux_NTAtm_RLatLon0.09_PT071H.grib2 2026-04-20 08:59 131K
20260420T06Z_MSC_RDPS_VerticalVelocity_IsbL-0250_RLatLon0.09_PT071H.grib2 2026-04-20 08:59 464K
20260420T06Z_MSC_RDPS_VerticalVelocity_IsbL-0500_RLatLon0.09_PT071H.grib2 2026-04-20 08:59 560K
20260420T06Z_MSC_RDPS_VerticalVelocity_IsbL-0700_RLatLon0.09_PT071H.grib2 2026-04-20 08:59 607K
20260420T06Z_MSC_RDPS_VerticalVelocity_IsbL-0850_RLatLon0.09_PT071H.grib2 2026-04-20 08:59 662K
20260420T06Z_MSC_RDPS_VerticalWindShear_EtaL-6500_RLatLon0.09_PT071H.grib2 2026-04-20 08:59 1.2M
20260420T06Z_MSC_RDPS_WindChill_Sfc_RLatLon0.09_PT071H.grib2 2026-04-20 08:59 1.2M
20260420T06Z_MSC_RDPS_WindDir_AGL-10m_RLatLon0.09_PT071H.grib2 2026-04-20 08:59 946K
20260420T06Z_MSC_RDPS_WindDir_AGL-120m_RLatLon0.09_PT071H.grib2 2026-04-20 08:59 581K
20260420T06Z_MSC_RDPS_WindDir_AGL-40m_RLatLon0.09_PT071H.grib2 2026-04-20 08:59 614K
20260420T06Z_MSC_RDPS_WindDir_AGL-80m_RLatLon0.09_PT071H.grib2 2026-04-20 08:59 593K
20260420T06Z_MSC_RDPS_WindDir_IsbL-0001_RLatLon0.09_PT071H.grib2 2026-04-20 08:59 298K
20260420T06Z_MSC_RDPS_WindDir_IsbL-0005_RLatLon0.09_PT071H.grib2 2026-04-20 08:59 367K
20260420T06Z_MSC_RDPS_WindDir_IsbL-0010_RLatLon0.09_PT071H.grib2 2026-04-20 08:59 380K
20260420T06Z_MSC_RDPS_WindDir_IsbL-0020_RLatLon0.09_PT071H.grib2 2026-04-20 08:59 397K
20260420T06Z_MSC_RDPS_WindDir_IsbL-0030_RLatLon0.09_PT071H.grib2 2026-04-20 08:59 405K
20260420T06Z_MSC_RDPS_WindDir_IsbL-0050_RLatLon0.09_PT071H.grib2 2026-04-20 08:59 414K
20260420T06Z_MSC_RDPS_WindDir_IsbL-0100_RLatLon0.09_PT071H.grib2 2026-04-20 08:59 428K
20260420T06Z_MSC_RDPS_WindDir_IsbL-0150_RLatLon0.09_PT071H.grib2 2026-04-20 08:59 411K
20260420T06Z_MSC_RDPS_WindDir_IsbL-0175_RLatLon0.09_PT071H.grib2 2026-04-20 08:59 428K
20260420T06Z_MSC_RDPS_WindDir_IsbL-0200_RLatLon0.09_PT071H.grib2 2026-04-20 08:59 434K
20260420T06Z_MSC_RDPS_WindDir_IsbL-0225_RLatLon0.09_PT071H.grib2 2026-04-20 08:59 436K
20260420T06Z_MSC_RDPS_WindDir_IsbL-0250_RLatLon0.09_PT071H.grib2 2026-04-20 08:59 436K
20260420T06Z_MSC_RDPS_WindDir_IsbL-0275_RLatLon0.09_PT071H.grib2 2026-04-20 08:59 457K
20260420T06Z_MSC_RDPS_WindDir_IsbL-0300_RLatLon0.09_PT071H.grib2 2026-04-20 08:59 452K
20260420T06Z_MSC_RDPS_WindDir_IsbL-0350_RLatLon0.09_PT071H.grib2 2026-04-20 08:59 476K
20260420T06Z_MSC_RDPS_WindDir_IsbL-0400_RLatLon0.09_PT071H.grib2 2026-04-20 08:59 498K
20260420T06Z_MSC_RDPS_WindDir_IsbL-0450_RLatLon0.09_PT071H.grib2 2026-04-20 08:59 523K
20260420T06Z_MSC_RDPS_WindDir_IsbL-0500_RLatLon0.09_PT071H.grib2 2026-04-20 08:59 544K
20260420T06Z_MSC_RDPS_WindDir_IsbL-0550_RLatLon0.09_PT071H.grib2 2026-04-20 08:59 570K
20260420T06Z_MSC_RDPS_WindDir_IsbL-0600_RLatLon0.09_PT071H.grib2 2026-04-20 08:59 603K
20260420T06Z_MSC_RDPS_WindDir_IsbL-0650_RLatLon0.09_PT071H.grib2 2026-04-20 08:59 646K
20260420T06Z_MSC_RDPS_WindDir_IsbL-0700_RLatLon0.09_PT071H.grib2 2026-04-20 08:59 685K
20260420T06Z_MSC_RDPS_WindDir_IsbL-0750_RLatLon0.09_PT071H.grib2 2026-04-20 08:59 734K
20260420T06Z_MSC_RDPS_WindDir_IsbL-0800_RLatLon0.09_PT071H.grib2 2026-04-20 08:59 806K
20260420T06Z_MSC_RDPS_WindDir_IsbL-0850_RLatLon0.09_PT071H.grib2 2026-04-20 08:59 861K
20260420T06Z_MSC_RDPS_WindDir_IsbL-0875_RLatLon0.09_PT071H.grib2 2026-04-20 08:59 876K
20260420T06Z_MSC_RDPS_WindDir_IsbL-0900_RLatLon0.09_PT071H.grib2 2026-04-20 08:59 885K
20260420T06Z_MSC_RDPS_WindDir_IsbL-0925_RLatLon0.09_PT071H.grib2 2026-04-20 08:59 891K
20260420T06Z_MSC_RDPS_WindDir_IsbL-0950_RLatLon0.09_PT071H.grib2 2026-04-20 08:59 887K
20260420T06Z_MSC_RDPS_WindDir_IsbL-0970_RLatLon0.09_PT071H.grib2 2026-04-20 08:59 893K
20260420T06Z_MSC_RDPS_WindDir_IsbL-0985_RLatLon0.09_PT071H.grib2 2026-04-20 08:59 903K
20260420T06Z_MSC_RDPS_WindDir_IsbL-1000_RLatLon0.09_PT071H.grib2 2026-04-20 08:59 919K
20260420T06Z_MSC_RDPS_WindDir_IsbL-1015_RLatLon0.09_PT071H.grib2 2026-04-20 08:59 936K
20260420T06Z_MSC_RDPS_WindGust-Max_AGL-10m_RLatLon0.09_PT071H.grib2 2026-04-20 08:59 1.0M
20260420T06Z_MSC_RDPS_WindGust-Min_AGL-10m_RLatLon0.09_PT071H.grib2 2026-04-20 08:59 1.0M
20260420T06Z_MSC_RDPS_WindGust_AGL-10m_RLatLon0.09_PT071H.grib2 2026-04-20 08:59 1.0M
20260420T06Z_MSC_RDPS_WindSpeed_AGL-10m_RLatLon0.09_PT071H.grib2 2026-04-20 08:59 846K
20260420T06Z_MSC_RDPS_WindSpeed_AGL-120m_RLatLon0.09_PT071H.grib2 2026-04-20 08:59 542K
20260420T06Z_MSC_RDPS_WindSpeed_AGL-40m_RLatLon0.09_PT071H.grib2 2026-04-20 08:59 678K
20260420T06Z_MSC_RDPS_WindSpeed_AGL-80m_RLatLon0.09_PT071H.grib2 2026-04-20 08:59 674K
20260420T06Z_MSC_RDPS_WindSpeed_IsbL-0001_RLatLon0.09_PT071H.grib2 2026-04-20 08:59 247K
20260420T06Z_MSC_RDPS_WindSpeed_IsbL-0005_RLatLon0.09_PT071H.grib2 2026-04-20 08:59 295K
20260420T06Z_MSC_RDPS_WindSpeed_IsbL-0010_RLatLon0.09_PT071H.grib2 2026-04-20 08:59 307K
20260420T06Z_MSC_RDPS_WindSpeed_IsbL-0020_RLatLon0.09_PT071H.grib2 2026-04-20 08:59 329K
20260420T06Z_MSC_RDPS_WindSpeed_IsbL-0030_RLatLon0.09_PT071H.grib2 2026-04-20 08:59 330K
20260420T06Z_MSC_RDPS_WindSpeed_IsbL-0050_RLatLon0.09_PT071H.grib2 2026-04-20 08:59 474K
20260420T06Z_MSC_RDPS_WindSpeed_IsbL-0100_RLatLon0.09_PT071H.grib2 2026-04-20 08:59 494K
20260420T06Z_MSC_RDPS_WindSpeed_IsbL-0150_RLatLon0.09_PT071H.grib2 2026-04-20 08:59 382K
20260420T06Z_MSC_RDPS_WindSpeed_IsbL-0175_RLatLon0.09_PT071H.grib2 2026-04-20 08:59 411K
20260420T06Z_MSC_RDPS_WindSpeed_IsbL-0200_RLatLon0.09_PT071H.grib2 2026-04-20 08:59 446K
20260420T06Z_MSC_RDPS_WindSpeed_IsbL-0225_RLatLon0.09_PT071H.grib2 2026-04-20 08:59 449K
20260420T06Z_MSC_RDPS_WindSpeed_IsbL-0250_RLatLon0.09_PT071H.grib2 2026-04-20 08:59 449K
20260420T06Z_MSC_RDPS_WindSpeed_IsbL-0275_RLatLon0.09_PT071H.grib2 2026-04-20 08:59 463K
20260420T06Z_MSC_RDPS_WindSpeed_IsbL-0300_RLatLon0.09_PT071H.grib2 2026-04-20 08:59 460K
20260420T06Z_MSC_RDPS_WindSpeed_IsbL-0350_RLatLon0.09_PT071H.grib2 2026-04-20 08:59 472K
20260420T06Z_MSC_RDPS_WindSpeed_IsbL-0400_RLatLon0.09_PT071H.grib2 2026-04-20 08:59 479K
20260420T06Z_MSC_RDPS_WindSpeed_IsbL-0450_RLatLon0.09_PT071H.grib2 2026-04-20 08:59 463K
20260420T06Z_MSC_RDPS_WindSpeed_IsbL-0500_RLatLon0.09_PT071H.grib2 2026-04-20 08:59 466K
20260420T06Z_MSC_RDPS_WindSpeed_IsbL-0550_RLatLon0.09_PT071H.grib2 2026-04-20 08:59 589K
20260420T06Z_MSC_RDPS_WindSpeed_IsbL-0600_RLatLon0.09_PT071H.grib2 2026-04-20 08:59 602K
20260420T06Z_MSC_RDPS_WindSpeed_IsbL-0650_RLatLon0.09_PT071H.grib2 2026-04-20 08:59 622K
20260420T06Z_MSC_RDPS_WindSpeed_IsbL-0700_RLatLon0.09_PT071H.grib2 2026-04-20 08:59 684K
20260420T06Z_MSC_RDPS_WindSpeed_IsbL-0750_RLatLon0.09_PT071H.grib2 2026-04-20 08:59 714K
20260420T06Z_MSC_RDPS_WindSpeed_IsbL-0800_RLatLon0.09_PT071H.grib2 2026-04-20 08:59 768K
20260420T06Z_MSC_RDPS_WindSpeed_IsbL-0850_RLatLon0.09_PT071H.grib2 2026-04-20 08:59 821K
20260420T06Z_MSC_RDPS_WindSpeed_IsbL-0875_RLatLon0.09_PT071H.grib2 2026-04-20 08:59 839K
20260420T06Z_MSC_RDPS_WindSpeed_IsbL-0900_RLatLon0.09_PT071H.grib2 2026-04-20 08:59 853K
20260420T06Z_MSC_RDPS_WindSpeed_IsbL-0925_RLatLon0.09_PT071H.grib2 2026-04-20 08:59 862K
20260420T06Z_MSC_RDPS_WindSpeed_IsbL-0950_RLatLon0.09_PT071H.grib2 2026-04-20 08:59 859K
20260420T06Z_MSC_RDPS_WindSpeed_IsbL-0970_RLatLon0.09_PT071H.grib2 2026-04-20 08:59 862K
20260420T06Z_MSC_RDPS_WindSpeed_IsbL-0985_RLatLon0.09_PT071H.grib2 2026-04-20 08:59 860K
20260420T06Z_MSC_RDPS_WindSpeed_IsbL-1000_RLatLon0.09_PT071H.grib2 2026-04-20 08:59 856K
20260420T06Z_MSC_RDPS_WindSpeed_IsbL-1015_RLatLon0.09_PT071H.grib2 2026-04-20 08:59 847K
20260420T06Z_MSC_RDPS_WindU_AGL-10m_RLatLon0.09_PT071H.grib2 2026-04-20 08:59 435K
20260420T06Z_MSC_RDPS_WindU_AGL-120m_RLatLon0.09_PT071H.grib2 2026-04-20 08:59 537K
20260420T06Z_MSC_RDPS_WindU_AGL-40m_RLatLon0.09_PT071H.grib2 2026-04-20 08:59 542K
20260420T06Z_MSC_RDPS_WindU_AGL-80m_RLatLon0.09_PT071H.grib2 2026-04-20 08:59 539K
20260420T06Z_MSC_RDPS_WindU_IsbL-0001_RLatLon0.09_PT071H.grib2 2026-04-20 08:59 239K
20260420T06Z_MSC_RDPS_WindU_IsbL-0005_RLatLon0.09_PT071H.grib2 2026-04-20 08:59 330K
20260420T06Z_MSC_RDPS_WindU_IsbL-0010_RLatLon0.09_PT071H.grib2 2026-04-20 08:59 341K
20260420T06Z_MSC_RDPS_WindU_IsbL-0020_RLatLon0.09_PT071H.grib2 2026-04-20 08:59 359K
20260420T06Z_MSC_RDPS_WindU_IsbL-0030_RLatLon0.09_PT071H.grib2 2026-04-20 08:59 359K
20260420T06Z_MSC_RDPS_WindU_IsbL-0050_RLatLon0.09_PT071H.grib2 2026-04-20 08:59 360K
20260420T06Z_MSC_RDPS_WindU_IsbL-0100_RLatLon0.09_PT071H.grib2 2026-04-20 08:59 483K
20260420T06Z_MSC_RDPS_WindU_IsbL-0150_RLatLon0.09_PT071H.grib2 2026-04-20 08:59 397K
20260420T06Z_MSC_RDPS_WindU_IsbL-0175_RLatLon0.09_PT071H.grib2 2026-04-20 08:59 423K
20260420T06Z_MSC_RDPS_WindU_IsbL-0200_RLatLon0.09_PT071H.grib2 2026-04-20 08:59 439K
20260420T06Z_MSC_RDPS_WindU_IsbL-0225_RLatLon0.09_PT071H.grib2 2026-04-20 08:59 343K
20260420T06Z_MSC_RDPS_WindU_IsbL-0250_RLatLon0.09_PT071H.grib2 2026-04-20 08:59 441K
20260420T06Z_MSC_RDPS_WindU_IsbL-0275_RLatLon0.09_PT071H.grib2 2026-04-20 08:59 354K
20260420T06Z_MSC_RDPS_WindU_IsbL-0300_RLatLon0.09_PT071H.grib2 2026-04-20 08:59 349K
20260420T06Z_MSC_RDPS_WindU_IsbL-0350_RLatLon0.09_PT071H.grib2 2026-04-20 08:59 358K
20260420T06Z_MSC_RDPS_WindU_IsbL-0400_RLatLon0.09_PT071H.grib2 2026-04-20 08:59 363K
20260420T06Z_MSC_RDPS_WindU_IsbL-0450_RLatLon0.09_PT071H.grib2 2026-04-20 08:59 365K
20260420T06Z_MSC_RDPS_WindU_IsbL-0500_RLatLon0.09_PT071H.grib2 2026-04-20 08:59 471K
20260420T06Z_MSC_RDPS_WindU_IsbL-0550_RLatLon0.09_PT071H.grib2 2026-04-20 08:59 475K
20260420T06Z_MSC_RDPS_WindU_IsbL-0600_RLatLon0.09_PT071H.grib2 2026-04-20 08:59 484K
20260420T06Z_MSC_RDPS_WindU_IsbL-0650_RLatLon0.09_PT071H.grib2 2026-04-20 08:59 503K
20260420T06Z_MSC_RDPS_WindU_IsbL-0700_RLatLon0.09_PT071H.grib2 2026-04-20 08:59 519K
20260420T06Z_MSC_RDPS_WindU_IsbL-0750_RLatLon0.09_PT071H.grib2 2026-04-20 08:59 546K
20260420T06Z_MSC_RDPS_WindU_IsbL-0800_RLatLon0.09_PT071H.grib2 2026-04-20 08:59 592K
20260420T06Z_MSC_RDPS_WindU_IsbL-0850_RLatLon0.09_PT071H.grib2 2026-04-20 08:59 636K
20260420T06Z_MSC_RDPS_WindU_IsbL-0875_RLatLon0.09_PT071H.grib2 2026-04-20 08:59 649K
20260420T06Z_MSC_RDPS_WindU_IsbL-0900_RLatLon0.09_PT071H.grib2 2026-04-20 08:59 652K
20260420T06Z_MSC_RDPS_WindU_IsbL-0925_RLatLon0.09_PT071H.grib2 2026-04-20 08:59 659K
20260420T06Z_MSC_RDPS_WindU_IsbL-0950_RLatLon0.09_PT071H.grib2 2026-04-20 08:59 654K
20260420T06Z_MSC_RDPS_WindU_IsbL-0970_RLatLon0.09_PT071H.grib2 2026-04-20 08:59 656K
20260420T06Z_MSC_RDPS_WindU_IsbL-0985_RLatLon0.09_PT071H.grib2 2026-04-20 08:59 795K
20260420T06Z_MSC_RDPS_WindU_IsbL-1000_RLatLon0.09_PT071H.grib2 2026-04-20 08:59 790K
20260420T06Z_MSC_RDPS_WindU_IsbL-1015_RLatLon0.09_PT071H.grib2 2026-04-20 08:59 830K
20260420T06Z_MSC_RDPS_WindV_AGL-10m_RLatLon0.09_PT071H.grib2 2026-04-20 08:59 432K
20260420T06Z_MSC_RDPS_WindV_AGL-120m_RLatLon0.09_PT071H.grib2 2026-04-20 08:59 533K
20260420T06Z_MSC_RDPS_WindV_AGL-40m_RLatLon0.09_PT071H.grib2 2026-04-20 08:59 538K
20260420T06Z_MSC_RDPS_WindV_AGL-80m_RLatLon0.09_PT071H.grib2 2026-04-20 08:59 535K
20260420T06Z_MSC_RDPS_WindV_IsbL-0001_RLatLon0.09_PT071H.grib2 2026-04-20 08:59 263K
20260420T06Z_MSC_RDPS_WindV_IsbL-0005_RLatLon0.09_PT071H.grib2 2026-04-20 08:59 284K
20260420T06Z_MSC_RDPS_WindV_IsbL-0010_RLatLon0.09_PT071H.grib2 2026-04-20 08:59 342K
20260420T06Z_MSC_RDPS_WindV_IsbL-0020_RLatLon0.09_PT071H.grib2 2026-04-20 08:59 323K
20260420T06Z_MSC_RDPS_WindV_IsbL-0030_RLatLon0.09_PT071H.grib2 2026-04-20 08:59 323K
20260420T06Z_MSC_RDPS_WindV_IsbL-0050_RLatLon0.09_PT071H.grib2 2026-04-20 08:59 360K
20260420T06Z_MSC_RDPS_WindV_IsbL-0100_RLatLon0.09_PT071H.grib2 2026-04-20 08:59 343K
20260420T06Z_MSC_RDPS_WindV_IsbL-0150_RLatLon0.09_PT071H.grib2 2026-04-20 08:59 395K
20260420T06Z_MSC_RDPS_WindV_IsbL-0175_RLatLon0.09_PT071H.grib2 2026-04-20 08:59 422K
20260420T06Z_MSC_RDPS_WindV_IsbL-0200_RLatLon0.09_PT071H.grib2 2026-04-20 08:59 339K
20260420T06Z_MSC_RDPS_WindV_IsbL-0225_RLatLon0.09_PT071H.grib2 2026-04-20 08:59 341K
20260420T06Z_MSC_RDPS_WindV_IsbL-0250_RLatLon0.09_PT071H.grib2 2026-04-20 08:59 366K
20260420T06Z_MSC_RDPS_WindV_IsbL-0275_RLatLon0.09_PT071H.grib2 2026-04-20 08:59 376K
20260420T06Z_MSC_RDPS_WindV_IsbL-0300_RLatLon0.09_PT071H.grib2 2026-04-20 08:59 373K
20260420T06Z_MSC_RDPS_WindV_IsbL-0350_RLatLon0.09_PT071H.grib2 2026-04-20 08:59 381K
20260420T06Z_MSC_RDPS_WindV_IsbL-0400_RLatLon0.09_PT071H.grib2 2026-04-20 08:59 361K
20260420T06Z_MSC_RDPS_WindV_IsbL-0450_RLatLon0.09_PT071H.grib2 2026-04-20 08:59 362K
20260420T06Z_MSC_RDPS_WindV_IsbL-0500_RLatLon0.09_PT071H.grib2 2026-04-20 08:59 467K
20260420T06Z_MSC_RDPS_WindV_IsbL-0550_RLatLon0.09_PT071H.grib2 2026-04-20 08:59 472K
20260420T06Z_MSC_RDPS_WindV_IsbL-0600_RLatLon0.09_PT071H.grib2 2026-04-20 08:59 483K
20260420T06Z_MSC_RDPS_WindV_IsbL-0650_RLatLon0.09_PT071H.grib2 2026-04-20 08:59 500K
20260420T06Z_MSC_RDPS_WindV_IsbL-0700_RLatLon0.09_PT071H.grib2 2026-04-20 08:59 503K
20260420T06Z_MSC_RDPS_WindV_IsbL-0750_RLatLon0.09_PT071H.grib2 2026-04-20 08:59 543K
20260420T06Z_MSC_RDPS_WindV_IsbL-0800_RLatLon0.09_PT071H.grib2 2026-04-20 08:59 589K
20260420T06Z_MSC_RDPS_WindV_IsbL-0850_RLatLon0.09_PT071H.grib2 2026-04-20 08:59 626K
20260420T06Z_MSC_RDPS_WindV_IsbL-0875_RLatLon0.09_PT071H.grib2 2026-04-20 08:59 640K
20260420T06Z_MSC_RDPS_WindV_IsbL-0900_RLatLon0.09_PT071H.grib2 2026-04-20 08:59 649K
20260420T06Z_MSC_RDPS_WindV_IsbL-0925_RLatLon0.09_PT071H.grib2 2026-04-20 08:59 657K
20260420T06Z_MSC_RDPS_WindV_IsbL-0950_RLatLon0.09_PT071H.grib2 2026-04-20 08:59 653K
20260420T06Z_MSC_RDPS_WindV_IsbL-0970_RLatLon0.09_PT071H.grib2 2026-04-20 08:59 793K
20260420T06Z_MSC_RDPS_WindV_IsbL-0985_RLatLon0.09_PT071H.grib2 2026-04-20 08:59 789K
20260420T06Z_MSC_RDPS_WindV_IsbL-1000_RLatLon0.09_PT071H.grib2 2026-04-20 08:59 785K
20260420T06Z_MSC_RDPS_WindV_IsbL-1015_RLatLon0.09_PT071H.grib2 2026-04-20 08:59 826K